Location: *
(28.3744°N, 81.5492°W)
Time: 14:46:11
(UTC+00:00)

SL-16 R/B - Pass Details

Date: 15 June 2025
Orbit: 841 x 847 km, 71.0° (Epoch: 15 July)

Event Time Altitude Azimuth Distance (km) Brightness Sun altitude
Rises 02:40:27 0° 1° (N) 3,399 6.0 -24.6°
Reaches altitude 10° 02:43:48 10° 21° (NNE) 2,462 4.9 -25.1°
Maximum altitude 02:47:26 17° 61° (ENE) 1,988 4.0 -25.6°
Enters shadow 02:47:27 17° 61° (ENE) 1,988 4.0 -25.6°
